EW4821 Weather Reports


time (UTC)temp
F
wind
direction
speed
knots
gust
knots
rain 1hr
in
rain 24hr
in
rain mn
in
humidity
%
barometer
mb
20260505034519 60 155 2.6 6.1 0.00 0.00 0.00 63 1010.4
20260505033026 60 163 3.5 6.1 0.00 0.00 0.00 63 1010.4
20260505030011 60 157 2.6 5.2 0.00 0.00 0.00 63 1010.5
20260505024520 60 159 2.6 4.3 0.00 0.00 0.00 64 1010.6
20260505023014 59 162 1.7 4.3 0.00 0.00 0.00 65 1010.6
20260505021526 59 152 1.7 4.3 0.00 0.00 0.00 64 1010.4
20260505020008 60 147 1.7 4.3 0.00 0.00 0.00 64 1010.4
20260505013013 61 155 0.9 4.3 0.00 0.00 0.00 60 1010.5
20260505011513 61 147 1.7 5.2 0.00 0.00 0.00 59 1010.1
20260505004510 62 152 1.7 5.2 0.00 0.00 0.00 59 1009.8
20260505003007 62 145 1.7 4.3 0.00 0.00 0.00 58 1009.8
20260505001519 63 165 2.6 5.2 0.00 0.00 0.00 56 1009.8
20260505000021 64 140 2.6 6.1 0.00 0.00 0.00 56 1009.8
20260504234512 65 159 1.7 5.2 0.00 0.00 0.00 54 1009.8
20260504233014 66 142 2.6 6.1 0.00 0.00 0.00 53 1009.8
20260504231510 67 156 2.6 5.2 0.00 0.00 0.00 51 1009.7
20260504224523 68 320 0.9 5.2 0.00 0.00 0.00 51 1009.8
20260504223012 69 134 1.7 5.2 0.00 0.00 0.00 49 1009.7
20260504221516 71 138 3.5 6.1 0.00 0.00 0.00 47 1009.7
20260504220022 72 142 3.5 9.6 0.00 0.00 0.00 45 1009.6
20260504214514 72 163 5.2 10.4 0.00 0.00 0.00 43 1009.7
20260504211516 72 181 4.3 8.7 0.00 0.00 0.00 46 1009.5
20260504210013 71 165 5.2 13.9 0.00 0.00 0.00 44 1009.6
20260504204524 72 157 3.5 13.0 0.00 0.00 0.00 43 1009.7
20260504203025 71 202 7.0 14.8 0.00 0.00 0.00 46 1009.9
20260504201519 72 159 5.2 9.6 0.00 0.00 0.00 42 1010.1
20260504200019 72 161 6.1 10.4 0.00 0.00 0.00 43 1010.4
20260504194524 71 168 0.9 10.4 0.00 0.00 0.00 45 1010.6
20260504193015 71 177 5.2 8.7 0.00 0.00 0.00 45 1010.8
20260504191517 71 165 7.8 13.0 0.00 0.00 0.00 46 1011.1
20260504190029 70 190 4.3 11.3 0.00 0.00 0.00 45 1011.5
20260504184523 70 194 6.1 13.0 0.00 0.00 0.00 44 1011.6
20260504183023 69 172 6.1 12.2 0.00 0.00 0.00 47 1011.7
20260504180013 70 181 2.6 9.6 0.00 0.00 0.00 47 1011.8
20260504174512 69 165 3.5 9.6 0.00 0.00 0.00 50 1012.0
20260504173022 68 141 0.9 10.4 0.00 0.00 0.00 51 1012.1
20260504171518 68 228 7.0 13.9 0.00 0.00 0.00 44 1012.3
20260504081528 44 165 0.0 0.0 0.00 0.00 0.00 67 1014.8
20260504050020 46 196 0.0 0.0 0.00 0.00 0.00 61 1015.2
20260504044523 46 196 0.0 0.0 0.00 0.00 0.00 61 1015.2
20260504043035 46 196 0.0 0.0 0.00 0.00 0.00 62 1015.1
20260504041509 46 196 0.0 0.0 0.00 0.00 0.00 62 1015.1